This demonstration page uses our WeatherBlox Daily Observations layout. Learn more.

Left ArrowRight Arrow

Hourly Observations for November 6, 2019

Temp ( °F °C ) Dew Point ( °F °C ) Humidity (%) Winds ( mph kmh ) Pressure ( in mb ) Visibility ( mi km ) Precip ( " mm )
12:53 am 00:53 Clear 41 5 32 0 70 70 SSW 6 9 30.16 1022 10 16 0.00 0.00
1:53 am 01:53 Clear 40 4.4 32 0 73 73 SW 7 11 30.16 1021 10 16 0.00 0.00
2:53 am 02:53 Clear 38 3.3 31 -0.6 76 76 SW 6 9 30.16 1021 10 16 0.00 0.00
3:53 am 03:53 Clear 37 2.8 30 -1.1 76 76 SW 5 7 30.15 1021 10 16 0.00 0.00
4:53 am 04:53 Clear 36 2.2 29 -1.7 76 76 SW 5 7 30.15 1021 10 16 0.00 0.00
5:53 am 05:53 Clear 35 1.7 29 -1.7 78 78 VRB 5 7 30.17 1022 10 16 0.00 0.00
6:53 am 06:53 Clear 31 -0.6 27 -2.8 85 85 Calm 30.20 1023 10 16 0.00 0.00
7:53 am 07:53 Sunny 35 1.7 30 -1.1 82 82 N 12 19 30.22 1024 10 16 0.00 0.00
8:53 am 08:53 Sunny 36 2.2 30 -1.1 79 79 NNE 15 24 30.26 1025 9 14 0.00 0.00
9:53 am 09:53 Partly Cloudy 36 2.2 28 -2.2 73 73 N 16 26 30.29 1026 10 16 0.00 0.00
10:01 am 10:01 Mostly Cloudy 35 1.7 28 -2.2 76 76 NNE 21 33 30.34 1028 9 14 0.00 0.00
10:48 am 10:48 Cloudy 34 1 28 -2 81 81 N 20 31 30.36 1028 7 11 0.00 0.00
10:53 am 10:53 Cloudy 34 1.1 29 -1.7 82 82 N 21 33 30.32 1027 7 11 0.00 0.00
11:53 am 11:53 Cloudy with Mist and Fog 33 0.6 29 -1.7 85 85 NNE 18 30 30.35 1028 6 10 0.00 0.00
12:53 pm 12:53 Cloudy 34 1.1 28 -2.2 79 79 NNE 22 35 30.34 1027 7 11 0.00 0.00
1:01 pm 13:01 Cloudy 35 1.7 28 -2.2 76 76 NNE 24 39 30.37 1029 8 13 0.00 0.00
1:53 pm 13:53 Cloudy 35 1.7 27 -2.8 72 72 NNE 22 35 30.34 1027 10 16 0.00 0.00
2:53 pm 14:53 Cloudy 35 1.7 25 -3.9 67 67 NNE 20 31 30.37 1029 10 16 0.00 0.00
3:11 pm 15:11 Cloudy 36 2 25 -4 65 65 NNE 18 30 30.41 1030 10 16 0.00 0.00
3:53 pm 15:53 Cloudy 35 1.7 21 -6.1 57 57 NNE 25 41 30.41 1030 10 16 0.00 0.00
4:53 pm 16:53 Cloudy 34 1.1 22 -5.6 61 61 NNE 21 33 30.44 1031 10 16 0.00 0.00
5:53 pm 17:53 Cloudy 31 -0.6 21 -6.1 67 67 NNE 22 35 30.47 1032 10 16 0.00 0.00
6:53 pm 18:53 Cloudy 31 -0.6 21 -6.1 67 67 NNE 15 24 30.51 1033 10 16 0.00 0.00
7:53 pm 19:53 Cloudy 30 -1.1 20 -6.7 66 66 NNE 21 33 30.53 1034 10 16 0.00 0.00
8:53 pm 20:53 Cloudy 30 -1.1 21 -6.1 69 69 NNE 17 28 30.55 1035 10 16 0.00 0.00
9:53 pm 21:53 Cloudy 29 -1.7 21 -6.1 72 72 NNE 20 31 30.56 1035 10 16 0.00 0.00
10:31 pm 22:31 Cloudy 28 -2.2 22 -5.6 78 78 N 20 31 30.63 1037 10 16 0.00 0.00
10:53 pm 22:53 Cloudy 28 -2.2 21 -6.1 75 75 NNE 18 30 30.59 1036 10 16 0.00 0.00
11:53 pm 23:53 Cloudy 26 -3.3 19 -7.2 75 75 NNE 21 33 30.61 1037 10 16 0.00 0.00

Powered by AerisWeather